Regional Weather Roundup
Issued by NWS

Home | Current Version | Previous Version | Graphics & Text | Print | Product List | Glossary Off
Versions: 1 2 3 4 5 6 7 8 9 10 11 12 13 14 15 16 17 18 19 20 21 22 23 24 25 26 27 28 29 30 31 32 33 34 35 36 37 38 39 40 41 42 43 44 45 46 47 48 49 50

521
ASUS43 KFSD 101010
RWRSD

WEATHER ROUNDUP FOR SOUTH DAKOTA
NATIONAL WEATHER SERVICE SIOUX FALLS SD
400 AM CST WED FEB 10 2016

NOTE: "FAIR" INDICATES FEW OR NO CLOUDS BELOW 12,000 FEET WITH NO
SIGNIFICANT WEATHER AND/OR OBSTRUCTIONS TO VISIBILITY.


SDZ001>005-009-010-012>017-101100-
NORTHWEST AND NORTH CENTRAL SOUTH DAKOTA

CITY           SKY/WX    TMP DP  RH WIND       PRES   REMARKS
BUFFALO          N/A     35  25  66 W12       29.81F WCI  27
FAITH            N/A     34  26  72 NW13      29.86F WCI  25
MOBRIDGE       CLOUDY    24  18  77 E13       29.88F WCI  12
$$

SDZ012>016-024>037-041>051-057-063-072>074-101100-
SOUTHWEST AND SOUTH CENTRAL SOUTH DAKOTA

CITY           SKY/WX    TMP DP  RH WIND       PRES   REMARKS
RAPID CTY ARPT CLOUDY    29  23  78 CALM      29.90F
PIERRE         CLOUDY    25  22  88 SE6       29.90F WCI  18
CUSTER         CLEAR     44  18  35 NW9G23    29.98F
ELLSWORTH AFB  CLOUDY    33  24  69 W8        29.89F WCI  26
PHILIP         CLEAR     31  27  85 W12       29.90F WCI  22
PINE RIDGE     CLEAR     35  25  66 W12       29.99F WCI  27
SPEARFISH      FAIR      48  19  32 W13       29.94F
WINNER         FAIR      32  26  78 S8        29.91F WCI  25
$$

SDZ004>011-016>023-039-040-101100-
NORTHEAST SOUTH DAKOTA

CITY           SKY/WX    TMP DP  RH WIND       PRES   REMARKS
ABERDEEN       LGT SNOW  18  14  84 E9        30.01F FOG     WCI   7
WATERTOWN      LGT SNOW  12   7  80 SE6       30.00F WCI   3
BROOKINGS      LGT SNOW  15  10  80 SE6       30.03F WCI   6
SISSETON         N/A      9   5  84 E6        30.08F WCI  -1
$$

SDZ017-020-022-023-036>040-048>070-101100-
SOUTHEAST SOUTH DAKOTA

CITY           SKY/WX    TMP DP  RH WIND       PRES   REMARKS
SIOUX FALLS    LGT SNOW  20  13  74 SE7       30.03F WCI  11
HURON          LGT SNOW  23  19  85 SE10      30.00F FOG     WCI  12
CHAMBERLAIN    CLEAR     25  22  88 E6        29.93F WCI  18
MITCHELL       CLOUDY    26  19  74 SE8       30.01F WCI  18
YANKTON        CLOUDY    21  16  79 E8        30.03F WCI  12
$$

ABBREVIATIONS USED IN REMARKS
   TC - TEMPERATURE IN CELSIUS
  WCI - WIND CHILL INDEX
   HX - HEAT INDEX
  VSB - VISIBILITY





USA.gov is the U.S. government's official web portal to all federal, state and local government web resources and services.